TimeAKDT,TemperatureF,Dew PointF,Humidity,Sea Level PressureIn,VisibilityMPH,Wind Direction,Wind SpeedMPH,Gust SpeedMPH,PrecipitationIn,Events,Conditions,WindDirDegrees,DateUTC
12:16 AM,48.2,44.6,87,29.50,10.0,NW,3.5,-,N/A,,Overcast,320,2011-10-12 08:16:00
12:36 AM,48.2,44.6,87,29.51,10.0,Calm,Calm,-,N/A,,Overcast,0,2011-10-12 08:36:00
12:56 AM,48.2,44.6,87,29.51,10.0,Calm,Calm,-,N/A,,Overcast,0,2011-10-12 08:56:00
1:16 AM,48.2,44.6,87,29.52,10.0,Calm,Calm,-,N/A,,Overcast,0,2011-10-12 09:16:00
1:36 AM,48.2,44.6,87,29.53,10.0,ESE,5.8,-,N/A,,Overcast,110,2011-10-12 09:36:00
1:56 AM,48.2,44.6,87,29.54,10.0,Calm,Calm,-,N/A,,Overcast,0,2011-10-12 09:56:00
2:16 AM,46.4,44.6,93,29.54,10.0,Calm,Calm,-,N/A,,Overcast,0,2011-10-12 10:16:00
2:36 AM,48.2,44.6,87,29.55,10.0,SSE,5.8,-,N/A,,Overcast,150,2011-10-12 10:36:00
2:56 AM,48.2,44.6,87,29.56,10.0,Calm,Calm,-,N/A,,Overcast,0,2011-10-12 10:56:00
3:16 AM,48.2,44.6,87,29.56,10.0,Calm,Calm,-,N/A,,Overcast,0,2011-10-12 11:16:00
3:36 AM,48.2,44.6,87,29.57,10.0,South,3.5,-,N/A,,Overcast,180,2011-10-12 11:36:00
3:56 AM,46.4,44.6,93,29.57,10.0,Calm,Calm,-,N/A,,Overcast,0,2011-10-12 11:56:00
4:16 AM,46.4,46.4,100,29.58,9.0,Calm,Calm,-,N/A,,Overcast,0,2011-10-12 12:16:00
4:36 AM,46.4,46.4,100,29.59,10.0,Calm,Calm,-,N/A,,Overcast,0,2011-10-12 12:36:00
4:56 AM,46.4,44.6,93,29.59,10.0,Calm,Calm,-,N/A,,Mostly Cloudy,0,2011-10-12 12:56:00
5:16 AM,46.4,46.4,100,29.60,10.0,Calm,Calm,-,N/A,,Mostly Cloudy,0,2011-10-12 13:16:00
5:36 AM,46.4,44.6,93,29.61,10.0,Calm,Calm,-,N/A,,Overcast,0,2011-10-12 13:36:00
5:56 AM,48.2,44.6,87,29.61,10.0,NE,3.5,-,N/A,,Overcast,40,2011-10-12 13:56:00
6:16 AM,48.2,44.6,87,29.62,10.0,Calm,Calm,-,N/A,,Overcast,0,2011-10-12 14:16:00
6:36 AM,48.2,44.6,87,29.63,10.0,NE,3.5,-,N/A,,Overcast,40,2011-10-12 14:36:00
6:56 AM,48.2,44.6,87,29.63,10.0,Calm,Calm,-,N/A,,Overcast,0,2011-10-12 14:56:00
7:16 AM,48.2,44.6,87,29.64,10.0,NW,4.6,-,N/A,,Overcast,320,2011-10-12 15:16:00
7:36 AM,46.4,44.6,93,29.65,5.0,WNW,4.6,-,N/A,,Overcast,300,2011-10-12 15:36:00
7:56 AM,46.4,44.6,93,29.66,7.0,Calm,Calm,-,N/A,,Overcast,0,2011-10-12 15:56:00
8:16 AM,46.4,44.6,93,29.67,7.0,Calm,Calm,-,N/A,,Overcast,0,2011-10-12 16:16:00
8:36 AM,46.4,44.6,93,29.67,7.0,West,3.5,-,N/A,,Overcast,260,2011-10-12 16:36:00
8:56 AM,46.4,44.6,93,29.68,7.0,Calm,Calm,-,N/A,,Overcast,0,2011-10-12 16:56:00
9:16 AM,46.4,44.6,93,29.69,7.0,Calm,Calm,-,N/A,,Overcast,0,2011-10-12 17:16:00
9:36 AM,46.4,44.6,93,29.70,7.0,Calm,Calm,-,N/A,,Overcast,0,2011-10-12 17:36:00
9:56 AM,46.4,44.6,93,29.71,7.0,North,3.5,-,N/A,,Overcast,350,2011-10-12 17:56:00
10:16 AM,48.2,44.6,87,29.72,5.0,North,3.5,-,N/A,,Overcast,10,2011-10-12 18:16:00
10:36 AM,48.2,44.6,87,29.73,5.0,North,3.5,-,N/A,,Overcast,10,2011-10-12 18:36:00
10:56 AM,48.2,44.6,87,29.73,7.0,Calm,Calm,-,N/A,,Overcast,0,2011-10-12 18:56:00
11:16 AM,48.2,46.4,93,29.74,7.0,Calm,Calm,-,N/A,,Overcast,0,2011-10-12 19:16:00
11:36 AM,48.2,46.4,93,29.75,5.0,Calm,Calm,-,N/A,,Overcast,0,2011-10-12 19:36:00
11:56 AM,48.2,46.4,93,29.77,5.0,Calm,Calm,-,N/A,,Overcast,0,2011-10-12 19:56:00
12:16 PM,48.2,46.4,93,29.78,5.0,WNW,3.5,-,N/A,,Overcast,290,2011-10-12 20:16:00
12:36 PM,48.2,46.4,93,29.79,5.0,North,4.6,-,N/A,,Overcast,10,2011-10-12 20:36:00
12:56 PM,48.2,46.4,93,29.81,5.0,Calm,Calm,-,N/A,,Overcast,0,2011-10-12 20:56:00
1:16 PM,48.2,46.4,93,29.82,5.0,NNE,5.8,-,N/A,,Overcast,30,2011-10-12 21:16:00
1:36 PM,48.2,46.4,93,29.82,5.0,East,4.6,-,N/A,,Overcast,90,2011-10-12 21:36:00
1:56 PM,48.2,46.4,93,29.83,5.0,East,3.5,-,N/A,,Overcast,90,2011-10-12 21:56:00
2:16 PM,48.2,46.4,93,29.84,5.0,East,3.5,-,N/A,,Overcast,80,2011-10-12 22:16:00
2:36 PM,48.2,46.4,93,29.84,5.0,Calm,Calm,-,N/A,,Overcast,0,2011-10-12 22:36:00
2:56 PM,48.2,46.4,93,29.85,5.0,East,4.6,-,N/A,,Overcast,100,2011-10-12 22:56:00
3:16 PM,48.2,46.4,93,29.86,5.0,ESE,5.8,-,N/A,,Overcast,110,2011-10-12 23:16:00
3:36 PM,48.2,46.4,93,29.87,5.0,East,4.6,-,N/A,,Overcast,80,2011-10-12 23:36:00
3:56 PM,48.2,44.6,87,29.87,5.0,ESE,4.6,-,N/A,,Overcast,110,2011-10-12 23:56:00
4:16 PM,48.2,44.6,87,29.88,5.0,Calm,Calm,-,N/A,,Overcast,0,2011-10-13 00:16:00
4:36 PM,48.2,44.6,87,29.88,5.0,ESE,4.6,-,N/A,,Overcast,110,2011-10-13 00:36:00
4:56 PM,46.4,44.6,93,29.89,5.0,Calm,Calm,-,N/A,,Overcast,0,2011-10-13 00:56:00
5:16 PM,46.4,44.6,93,29.89,5.0,Calm,Calm,-,N/A,,Overcast,0,2011-10-13 01:16:00
5:36 PM,46.4,44.6,93,29.90,5.0,ESE,4.6,-,N/A,,Overcast,120,2011-10-13 01:36:00
5:56 PM,46.4,44.6,93,29.91,7.0,Calm,Calm,-,N/A,,Overcast,0,2011-10-13 01:56:00
6:16 PM,46.4,44.6,93,29.91,7.0,East,5.8,-,N/A,,Overcast,100,2011-10-13 02:16:00
6:36 PM,46.4,44.6,93,29.92,7.0,Calm,Calm,-,N/A,,Overcast,0,2011-10-13 02:36:00
6:56 PM,46.4,44.6,93,29.93,5.0,Calm,Calm,-,N/A,,Overcast,0,2011-10-13 02:56:00
7:16 PM,46.4,44.6,93,29.93,5.0,NE,3.5,-,N/A,,Overcast,40,2011-10-13 03:16:00
7:36 PM,46.4,44.6,93,29.93,5.0,East,3.5,-,N/A,,Overcast,80,2011-10-13 03:36:00
7:56 PM,46.4,44.6,93,29.94,7.0,Calm,Calm,-,N/A,,Overcast,0,2011-10-13 03:56:00
8:16 PM,46.4,44.6,93,29.95,7.0,Calm,Calm,-,N/A,,Overcast,0,2011-10-13 04:16:00
8:36 PM,46.4,44.6,93,29.95,7.0,NNW,3.5,-,N/A,,Overcast,330,2011-10-13 04:36:00
8:56 PM,46.4,44.6,93,29.96,7.0,SE,3.5,-,N/A,,Overcast,130,2011-10-13 04:56:00
9:16 PM,46.4,44.6,93,29.97,7.0,East,5.8,-,N/A,,Overcast,90,2011-10-13 05:16:00
9:36 PM,46.4,44.6,93,29.97,7.0,East,8.1,-,N/A,,Overcast,100,2011-10-13 05:36:00
9:56 PM,46.4,44.6,93,29.98,7.0,ESE,4.6,-,N/A,,Overcast,110,2011-10-13 05:56:00
10:16 PM,46.4,44.6,93,29.98,5.0,East,6.9,-,N/A,,Overcast,90,2011-10-13 06:16:00
10:36 PM,46.4,44.6,93,29.98,10.0,East,3.5,-,N/A,,Overcast,100,2011-10-13 06:36:00
10:56 PM,46.4,44.6,93,29.99,10.0,Calm,Calm,-,N/A,,Overcast,0,2011-10-13 06:56:00
11:16 PM,46.4,44.6,93,29.99,10.0,East,5.8,-,N/A,,Overcast,80,2011-10-13 07:16:00
11:36 PM,46.4,44.6,93,30.00,8.0,Calm,Calm,-,N/A,,Overcast,0,2011-10-13 07:36:00
11:56 PM,46.4,44.6,93,30.01,7.0,Calm,Calm,-,N/A,,Overcast,0,2011-10-13 07:56:00